KC3ECO Weather Reports


time (UTC)temp
F
wind
direction
speed
knots
gust
knots
rain 1hr
in
rain 24hr
in
rain mn
in
humidity
%
barometer
mb
20260505004018 65 323 0.9 2.6 0.00 0.02 0.02 56 1010.1
20260505003038 65 273 1.7 3.5 0.00 0.02 0.02 55 1010.1
20260505002018 65 252 0.9 3.5 0.00 0.02 0.02 55 1010.1
20260505001016 66 278 1.7 3.5 0.00 0.02 0.02 54 1010.0
20260505000015 66 244 0.9 2.6 0.00 0.02 0.02 53 1010.0
20260504235018 67 289 2.6 7.0 0.00 0.02 0.02 52 1010.1
20260504234016 67 263 2.6 6.1 0.00 0.02 0.02 50 1010.1
20260504233016 68 274 2.6 6.1 0.00 0.02 0.02 50 1010.1
20260504232016 68 252 1.7 7.0 0.00 0.02 0.02 48 1010.0
20260504231016 69 260 3.5 8.7 0.00 0.02 0.02 47 1010.1
20260504230017 70 281 1.7 5.2 0.00 0.02 0.02 47 1010.1
20260504225016 70 266 2.6 6.1 0.00 0.02 0.02 46 1010.0
20260504224016 71 171 1.7 10.4 0.00 0.02 0.02 44 1010.0
20260504223017 71 271 2.6 7.8 0.00 0.02 0.02 44 1010.2
20260504222017 72 271 3.5 7.8 0.00 0.02 0.02 43 1010.1
20260504221017 72 134 3.5 13.0 0.00 0.02 0.02 42 1010.1
20260504220017 72 265 1.7 5.2 0.00 0.02 0.02 43 1010.1
20260504215017 72 263 2.6 6.1 0.00 0.02 0.02 41 1010.2
20260504214018 73 264 3.5 10.4 0.00 0.02 0.02 42 1010.3
20260504213018 73 267 2.6 7.8 0.00 0.02 0.02 41 1010.3
20260504212017 73 261 3.5 7.0 0.00 0.02 0.02 43 1010.2
20260504211018 73 224 2.6 7.8 0.00 0.02 0.02 41 1010.3
20260504210038 73 270 3.5 7.8 0.00 0.02 0.02 41 1010.3
20260504205018 73 244 2.6 7.0 0.00 0.02 0.02 41 1010.5
20260504204018 73 254 2.6 6.1 0.00 0.02 0.02 43 1010.5
20260504203018 73 264 2.6 5.2 0.00 0.03 0.02 42 1010.5
20260504202020 72 123 3.5 9.6 0.00 0.03 0.02 42 1010.6
20260504201056 72 258 3.5 8.7 0.00 0.03 0.02 42 1010.8
20260504200016 72 268 3.5 7.0 0.00 0.03 0.02 43 1011.0
20260504195056 72 211 3.5 7.8 0.00 0.03 0.02 42 1011.1
20260504194016 72 276 4.3 9.6 0.00 0.03 0.02 42 1011.2
20260504193016 72 86 3.5 9.6 0.00 0.03 0.02 43 1011.4
20260504192016 72 115 2.6 7.8 0.00 0.03 0.02 42 1011.6
20260504191016 72 265 2.6 7.0 0.00 0.03 0.02 42 1011.8
20260504190016 72 174 3.5 8.7 0.01 0.03 0.02 40 1011.8
20260504185017 72 262 3.5 7.0 0.01 0.03 0.02 42 1012.0
20260504184041 72 281 4.3 10.4 0.01 0.03 0.02 44 1012.0
20260504183017 72 299 2.6 7.8 0.01 0.03 0.02 44 1012.1
20260504182017 72 255 2.6 6.1 0.01 0.03 0.02 44 1012.1
20260504181017 71 124 2.6 7.8 0.01 0.03 0.02 43 1012.1
20260504180017 71 283 2.6 7.0 0.00 0.02 0.01 45 1012.5
20260504175017 70 124 3.5 7.0 0.00 0.02 0.01 44 1012.6
20260504174018 71 267 3.5 7.8 0.00 0.02 0.01 45 1012.7
20260504173017 70 276 2.6 7.0 0.00 0.02 0.01 46 1012.9
20260504172017 69 79 3.5 8.7 0.00 0.02 0.01 45 1013.0
20260504171018 70 272 2.6 6.1 0.00 0.02 0.01 45 1013.1
20260504151037 66 265 2.6 5.2 0.01 0.02 0.01 45 1014.6
20260504141017 62 278 1.7 4.3 0.00 0.01 0.00 53 1015.0
20260504081017 38 354 0.9 1.7 0.00 0.01 0.00 87 1014.8
20260504045038 39 45 0.9 1.7 0.00 0.01 0.00 83 1014.9
20260504044016 40 268 1.7 2.6 0.00 0.01 0.00 83 1014.9
20260504043036 40 87 0.9 2.6 0.00 0.01 0.00 82 1015.1
20260504042016 40 84 0.9 1.7 0.00 0.01 0.00 82 1014.9
20260504041016 40 359 0.9 2.6 0.00 0.01 0.00 81 1014.8
20260504040016 40 95 0.9 1.7 0.00 0.01 0.00 80 1014.8
20260504035017 40 97 0.9 1.7 0.00 0.01 0.01 81 1014.7
20260504034016 41 251 0.9 1.7 0.00 0.01 0.01 80 1014.6
20260504033017 41 112 0.9 1.7 0.00 0.01 0.01 79 1014.5
20260504032017 41 98 0.9 1.7 0.00 0.01 0.01 77 1014.5
20260504031017 41 122 0.9 1.7 0.00 0.01 0.01 76 1014.4
20260504030017 42 107 0.9 1.7 0.00 0.01 0.01 77 1014.4
20260504025017 42 89 0.9 1.7 0.00 0.01 0.01 76 1014.4
20260504024017 43 114 0.9 1.7 0.00 0.01 0.01 75 1014.3
20260504023017 43 106 0.9 1.7 0.00 0.01 0.01 73 1014.3
20260504022018 43 112 0.9 1.7 0.00 0.01 0.01 74 1014.3
20260504021018 44 321 0.9 1.7 0.00 0.01 0.01 73 1014.3
20260504020018 44 110 0.9 1.7 0.00 0.01 0.01 71 1014.3
20260504015018 45 62 0.9 1.7 0.00 0.01 0.01 70 1014.2
20260504014018 45 61 0.9 1.7 0.00 0.01 0.01 68 1014.2
20260504013018 45 35 0.9 1.7 0.00 0.01 0.01 69 1014.0
20260504012019 46 358 0.9 1.7 0.00 0.01 0.01 65 1014.0
20260504011017 47 115 1.7 3.5 0.00 0.01 0.01 65 1013.9
20260504010018 47 120 1.7 4.3 0.00 0.01 0.01 65 1013.8
20260504005016 48 101 1.7 5.2 0.00 0.01 0.01 63 1013.8